Find Kosmos-2416

NORAD ID: 28908 Int'l Des: 2005-048 Owner: KVR Country: RU operational
LEOCIRCULARPOLAR

Live Position

Loading 3D Globe...

About Kosmos-2416

Description loading...

Upcoming Passes

Passes for default location (London). Set your location on the main map for personalized predictions.

Altitude History

Loading altitude history...

Two-Line Element Set

1 28908U 05048A 26104.47541846 .00000022 00000-0 73390-4 0 9996
2 28908 82.4724 348.4110 0007547 318.5883 216.2389 12.55598155930904
Epoch: Apr 14, 2026 • Age: 15 hours

Current Status

Altitude 1450.5 km
Velocity 7.13 km/s
Sub-Earth Point -16.73°S, 75.4°W
Launch Date Dec 21, 2005
Age 20.3 years
Type other

Technical Details

Classification Payload
Mass 280.00 kg
Dry Mass 280.00 kg
Total Mass 280.00 kg
Length 1.60 m
Diameter 0.80 m
Span 7.00 m
Shape Cyl + Ant
Manufacturer NPOPMR
Bus Type Strela-3M
Phase Status In Orbit
Owner/State KVR/RU

Most Searched